Content
SEND FEEDBACK

Daily
Averages
Monthly
Summary
United States of America

LAKEHURST, NEW JERSEY


Home > North America > United States > New Jersey
Elevation: 31 meters     Latitude: 40 02N     Longitude: 074 21W

WEATHER
 
SELECT A DAY
Number of Records: 33,428;   Date Range: 9/1/12 - 7/22/14
 
SHARE

PRINT THIS DATA

[ ← Previous Day ]
WEATHER ALMANAC - 31 JANUARY, 2013
[ Next Day → ]
[ °F ]   °C
Weather ElementAverageHighLow
Temperature12.2 °C17 °C (12:27 am)-1.4 °C (10:55 pm)
Dewpoint8.3 °C16 °C (3:21 am)-13.5 °C (11:55 pm)
Humidity79.8 %100 % (3:21 am)34 % (1:55 pm)
Barometer992.2 hPa1010.8 hPa (11:55 pm)985.4 hPa (3:01 am)
Wind Speed39.3 km/h61.2 km/h (3:50 am)
Wind Gust79.7 km/h (3:18 am)
Weather ElementAverage
Visibility12.1 km
Wind DirectionWSW (234.2 °)

Weather ElementTotal
Precipitation15.75 mm
Heating Degree Days10.6 (Base 18.3)
Averaged from 72 records on 31 January, 2013
WEATHER CONDITIONS BREAKOUT
WIND DIRECTION BREAKOUT
WEATHER BY HOUR - 31 JANUARY, 2013
[ °F ]   °C
Local TimeTemperatureDewpointHumidityBarometerVisibilityWind DirectionWind SpeedGust SpeedPrecipitationEventsConditions
12:27 AM17 °C15 °C88 %993.6 hPa16.1 kmSSW (210°)40.7 km/h61.2 km/hOvercast
12:31 AM17 °C15 °C88 %992.9 hPa16.1 kmSSW (200°)37 km/h61.2 km/hRainLight Rain
12:38 AM17 °C15 °C88 %992.6 hPa16.1 kmSSW (200°)40.7 km/h59.2 km/hRainLight Rain
12:52 AM17 °C15 °C88 %992.2 hPa16.1 kmSSW (200°)31.5 km/h57.5 km/hOvercast
12:54 AM17 °C15 °C88 %991.9 hPa16.1 kmSSW (200°)38.9 km/h61.2 km/hRainLight Rain
12:55 AM17 °C14.9 °C87 %991.9 hPa16.1 kmSSW (200°)40.7 km/h61.2 km/h0.51 mmRainLight Rain
1:15 AM17 °C15 °C88 %990.9 hPa9.7 kmSSW (200°)46.3 km/h59.2 km/hRainLight Rain
1:19 AM17 °C15 °C88 %990.5 hPa9.7 kmSSW (200°)38.9 km/h59.2 km/hRainLight Rain
1:30 AM16 °C15 °C94 %989.5 hPa9.7 kmSouth (180°)33.3 km/h59.2 km/hRainLight Rain
1:44 AM16 °C15 °C94 %989.2 hPa11.3 kmSouth (190°)35.2 km/h62.9 km/hRainLight Rain
1:55 AM16 °C15.1 °C94 %988.8 hPa11.3 kmSouth (180°)38.9 km/h53.8 km/h1.78 mmRainLight Rain
2:05 AM16 °C15 °C94 %988.5 hPa11.3 kmSouth (190°)35.2 km/h61.2 km/hRainLight Rain
2:22 AM16 °C15 °C94 %987.8 hPa14.5 kmSouth (190°)42.6 km/h66.6 km/hRainLight Rain
2:26 AM16 °C15 °C94 %987.8 hPa12.9 kmSouth (180°)40.7 km/h66.6 km/hRainLight Rain
2:27 AM16 °C15 °C94 %987.5 hPa12.9 kmSouth (190°)42.6 km/h66.6 km/hRainLight Rain
2:34 AM16 °C15 °C94 %987.1 hPa12.9 kmSouth (190°)50.1 km/h72.3 km/hRainLight Rain
2:48 AM16 °C15 °C94 %986.5 hPa16.1 kmSouth (190°)38.9 km/h64.9 km/hRainLight Rain
2:49 AM16 °C15 °C94 %986.8 hPa16.1 kmSouth (190°)44.4 km/h64.9 km/hOvercast
2:55 AM16 °C15.1 °C94 %986.8 hPa16.1 kmSouth (190°)46.3 km/h68.6 km/h1.02 mmOvercast
3:01 AM16 °C15 °C94 %985.4 hPa16.1 kmSouth (190°)42.6 km/h72.3 km/hRainLight Rain
3:18 AM16 °C15 °C94 %985.4 hPa4 kmSSW (200°)55.5 km/h79.7 km/hRainHeavy Rain
3:19 AM16 °C15 °C94 %985.4 hPa3.2 kmSSW (200°)44.4 km/h79.7 km/hRainHeavy Rain
3:20 AM16 °C15 °C94 %985.4 hPa3.2 kmSouth (190°)44.4 km/h79.7 km/hRainHeavy Rain
3:21 AM16 °C16 °C100 %985.4 hPa3.2 kmSouth (190°)50.1 km/h79.7 km/hRainHeavy Rain
3:22 AM16 °C16 °C100 %985.4 hPa2.9 kmSSW (200°)51.8 km/h79.7 km/hRainHeavy Rain
3:23 AM16 °C16 °C100 %985.4 hPa3.2 kmSSW (200°)44.4 km/h79.7 km/hRainHeavy Rain
3:33 AM16 °C16 °C100 %985.4 hPa4 kmSSW (200°)46.3 km/h74 km/hRainRain
3:43 AM16 °C16 °C100 %986.8 hPa3.2 kmSW (220°)46.3 km/h61.2 km/hRainHeavy Rain
3:44 AM16 °C16 °C100 %986.8 hPa2.9 kmSW (230°)46.3 km/h61.2 km/hRainHeavy Rain
3:50 AM16 °C16 °C100 %987.1 hPa3.2 kmSW (230°)61.2 km/h76 km/hRainRain
3:51 AM16 °C16 °C100 %987.1 hPa3.2 kmSW (230°)61.2 km/h76 km/hRainRain
3:52 AM16 °C16 °C100 %987.1 hPa3.2 kmSW (220°)57.5 km/h76 km/hRainLight Rain
3:53 AM16 °C16 °C100 %987.5 hPa4 kmSW (220°)51.8 km/h76 km/hRainLight Rain
3:54 AM16 °C16 °C100 %987.1 hPa4 kmSW (230°)51.8 km/h76 km/hRainLight Rain
3:55 AM16.2 °C16 °C99 %987.5 hPa4.8 kmSW (230°)48.1 km/h76 km/h7.37 mmRainLight Rain
3:57 AM16 °C16 °C100 %987.5 hPa4.8 kmSW (230°)50.1 km/h76 km/hRainLight Rain
3:59 AM16 °C16 °C100 %987.5 hPa9.7 kmSW (230°)50.1 km/h76 km/hRainLight Rain
4:03 AM16 °C16 °C100 %988.1 hPa12.9 kmSW (230°)46.3 km/h68.6 km/hRainLight Rain
4:05 AM16 °C16 °C100 %988.1 hPa14.5 kmWSW (240°)50.1 km/h68.6 km/hRainLight Rain
4:14 AM16 °C15 °C94 %987.8 hPa14.5 kmWSW (240°)33.3 km/h64.9 km/hRainLight Rain
4:24 AM15 °C15 °C100 %987.8 hPa11.3 kmWSW (240°)29.6 km/h42.6 km/hRainRain
4:34 AM15 °C15 °C100 %987.8 hPa8 kmWSW (240°)31.5 km/h48.1 km/hRainRain
4:55 AM14.5 °C13.5 °C94 %987.1 hPa9.7 kmSW (220°)24.1 km/h44.4 km/h3.81 mmRainRain
5:03 AM14 °C13 °C94 %987.1 hPa12.9 kmSSW (210°)29.6 km/hRainLight Rain
5:33 AM14 °C12 °C88 %986.1 hPa16.1 kmSSW (200°)31.5 km/h48.1 km/hPartly Cloudy
5:55 AM13.5 °C11.5 °C88 %986.1 hPa16.1 kmSW (220°)37 km/h57.5 km/h0.76 mmScattered Clouds
6:20 AM14 °C11 °C82 %988.1 hPa12.9 kmWSW (250°)40.7 km/h57.5 km/hRainLight Rain
6:28 AM12 °C9 °C82 %988.8 hPa9.7 kmWest (280°)42.6 km/h62.9 km/hRainLight Rain
6:34 AM12 °C8 °C77 %988.8 hPa16.1 kmWest (280°)40.7 km/h62.9 km/hOvercast
6:45 AM11 °C8 °C82 %989.8 hPa16.1 kmWest (280°)37 km/h57.5 km/hRainLight Rain
6:49 AM11 °C7 °C76 %990.2 hPa16.1 kmWNW (290°)40.7 km/h57.5 km/hRainLight Rain
6:55 AM10.5 °C4.3 °C66 %990.2 hPa16.1 kmWest (280°)40.7 km/h61.2 km/h0.25 mmRainLight Rain
7:07 AM10 °C1 °C54 %990.9 hPa16.1 kmWest (270°)42.6 km/h62.9 km/hOvercast
7:55 AM9 °C-0.5 °C52 %992.6 hPa16.1 kmWest (280°)38.9 km/h57.5 km/h0.25 mmOvercast
8:55 AM7.4 °C-0.8 °C56 %995.3 hPa16.1 kmWest (280°)40.7 km/h55.5 km/hOvercast
9:55 AM7 °C-3.4 °C48 %997 hPa16.1 kmWest (280°)37 km/h51.8 km/hMostly Cloudy
10:55 AM6.2 °C-3.6 °C50 %998.3 hPa16.1 kmWest (280°)29.6 km/h44.4 km/hMostly Cloudy
11:55 AM6.6 °C-4.7 °C45 %998.6 hPa16.1 kmWNW (290°)27.8 km/h51.8 km/hMostly Cloudy
12:55 PM7 °C-5.6 °C41 %998.6 hPa16.1 kmWest (280°)27.8 km/h46.3 km/hMostly Cloudy
1:55 PM7.1 °C-7.7 °C34 %999.7 hPa16.1 kmWest (280°)31.5 km/h50.1 km/hPartly Cloudy
2:55 PM6.3 °C-7.1 °C38 %1000.7 hPa16.1 kmWest (280°)25.9 km/h48.1 km/hMostly Cloudy
3:55 PM5.3 °C-9 °C35 %1002.7 hPa16.1 kmWNW (290°)33.3 km/h57.5 km/hClear
4:55 PM3.5 °C-10.8 °C35 %1004.1 hPa16.1 kmWNW (290°)33.3 km/h57.5 km/hClear
5:55 PM2.1 °C-11.3 °C37 %1006.1 hPa16.1 kmWest (280°)37 km/h51.8 km/hClear
6:55 PM1.6 °C-10 °C42 %1007.1 hPa16.1 kmWest (280°)16.7 km/hPartly Cloudy
7:55 PM1.3 °C-9.3 °C46 %1008.1 hPa16.1 kmWest (280°)25.9 km/h40.7 km/hPartly Cloudy
8:55 PM1.1 °C-9.6 °C45 %1008.5 hPa16.1 kmWest (280°)24.1 km/h35.2 km/hOvercast
9:52 PM0 °C-8 °C55 %1009.8 hPa16.1 kmWNW (290°)29.6 km/h44.4 km/hOvercast
9:55 PM-0.5 °C-8.1 °C57 %1009.8 hPa16.1 kmWNW (290°)35.2 km/h48.1 km/h0 mmOvercast
10:07 PM-1 °C-9 °C55 %1010.2 hPa16.1 kmWNW (290°)22.2 km/h40.7 km/hOvercast
10:55 PM-1.4 °C-12.8 °C42 %1010.2 hPa16.1 kmWNW (290°)22.2 km/h35.2 km/h0 mmClear
11:55 PM-1.4 °C-13.5 °C40 %1010.8 hPa16.1 kmWest (270°)24.1 km/hClear
Hourly data recorded from KWRI, located 0 kilometers away from Lakehurst, New Jersey







STORIES FROM OUR PARTNERS